This is the latest recevied weather packets stored in our database for station/object RV1CJ-14. If no packets are shown the sender has not sent any weather packets the latest 10 day(s).
| Time | Temp. | Humidity | Pressure | Rain* | Wind** | Luminosity | Snow |
|---|---|---|---|---|---|---|---|
| 1777888803 | 17.78° C | 62% | 1000.8 hPa | 0 mm | - | 188 W/m² | - |
| 1777888203 | 17.78° C | 61% | 1000.8 hPa | 0 mm | - | 243 W/m² | - |
| 1777887603 | 17.78° C | 62% | 1000.9 hPa | 0 mm | - | 271 W/m² | - |
| 1777887003 | 17.78° C | 62% | 1001 hPa | 0 mm | - | 218 W/m² | - |
| 1777886403 | 17.22° C | 62% | 1001 hPa | 0 mm | - | 237 W/m² | - |
| 1777885803 | 17.22° C | 62% | 1001.1 hPa | 0 mm | - | 214 W/m² | - |
| 1777885203 | 17.22° C | 61% | 1001.3 hPa | 0 mm | - | 202 W/m² | - |
| 1777884603 | 17.22° C | 61% | 1001.2 hPa | 0 mm | - | 216 W/m² | - |
| 1777884003 | 17.22° C | 62% | 1001.2 hPa | 0 mm | - | 237 W/m² | - |
| 1777883403 | 16.67° C | 62% | 1001.3 hPa | 0 mm | - | 195 W/m² | - |
| 1777882803 | 16.67° C | 62% | 1001.4 hPa | 0 mm | - | 179 W/m² | - |
| 1777882203 | 16.67° C | 63% | 1001.5 hPa | 0 mm | - | 267 W/m² | - |
| 1777881603 | 16.67° C | 63% | 1001.5 hPa | 0 mm | - | 251 W/m² | - |
| 1777881003 | 16.67° C | 63% | 1001.6 hPa | 0 mm | - | 223 W/m² | - |
| 1777880403 | 16.67° C | 64% | 1001.6 hPa | 0 mm | - | 255 W/m² | - |
| 1777879803 | 16.11° C | 64% | 1001.7 hPa | 0 mm | - | 302 W/m² | - |
| 1777879203 | 16.11° C | 64% | 1001.9 hPa | 0 mm | - | 406 W/m² | - |
| 1777878603 | 15° C | 66% | 1002 hPa | 0 mm | - | 359 W/m² | - |
| 1777878004 | 15° C | 66% | 1002.2 hPa | 0 mm | - | 207 W/m² | - |
| 1777877403 | 14.44° C | 66% | 1002.3 hPa | 0 mm | - | 192 W/m² | - |
| 1777876803 | 14.44° C | 66% | 1002.3 hPa | 0 mm | - | 243 W/m² | - |
| 1777876203 | 13.89° C | 67% | 1002.4 hPa | 0 mm | - | 308 W/m² | - |
| 1777875603 | 13.89° C | 67% | 1002.4 hPa | 0 mm | - | 105 W/m² | - |
| 1777875003 | 13.89° C | 67% | 1002.5 hPa | 0 mm | - | 67 W/m² | - |
| 1777874404 | 13.89° C | 67% | 1002.5 hPa | 0 mm | - | 118 W/m² | - |
* Rain latest hour (hover to see other rain measurements)
** Current wind speed in m/s (hover to see current wind gust speed)